| time (UTC) | temp C | wind direction | speed KPH | gust KPH | rain 1hr cm | rain 24hr cm | rain mn cm | humidity % | barometer mb |
| 20260507145007 | 14 | 299 | 9.7 | 24.1 | 0.00 | 0.38 | 0.08 | 49 | 1008.0 |
| 20260507144516 | 13 | 292 | 3.2 | 24.1 | 0.00 | 0.38 | 0.08 | 1007.9 | |
| 20260507144008 | 14 | 240 | 4.8 | 24.1 | 0.00 | 0.38 | 0.08 | 1008.0 | |
| 20260507143502 | 13 | 5 | 11.3 | 24.1 | 0.00 | 0.38 | 0.08 | 1008.1 | |
| 20260507143003 | 13 | 269 | 9.7 | 20.9 | 0.00 | 0.38 | 0.08 | 1008.0 | |
| 20260507142504 | 13 | 237 | 6.4 | 20.9 | 0.00 | 0.38 | 0.08 | 1008.0 | |
| 20260507142005 | 13 | 273 | 6.4 | 17.7 | 0.00 | 0.38 | 0.08 | 56 | 1008.0 |
| 20260507141508 | 13 | 300 | 4.8 | 19.3 | 0.00 | 0.38 | 0.08 | 56 | 1008.0 |
| 20260507141007 | 13 | 207 | 4.8 | 19.3 | 0.00 | 0.38 | 0.08 | 58 | 1008.2 |
| 20260507140505 | 13 | 15 | 1.6 | 16.1 | 0.00 | 0.38 | 0.08 | 62 | 1008.0 |
| 20260507140016 | 13 | 273 | 8.0 | 17.7 | 0.00 | 0.38 | 0.08 | 61 | 1008.1 |
| 20260507135508 | 13 | 292 | 9.7 | 19.3 | 0.00 | 0.38 | 0.08 | 64 | 1008.0 |
| 20260507135009 | 12 | 26 | 4.8 | 19.3 | 0.00 | 0.38 | 0.08 | 65 | 1008.0 |
| 20260507134528 | 12 | 283 | 9.7 | 17.7 | 0.00 | 0.38 | 0.08 | 65 | 1007.9 |
| 20260507134007 | 12 | 319 | 4.8 | 20.9 | 0.00 | 0.38 | 0.08 | 67 | 1008.0 |
| 20260507133510 | 12 | 301 | 4.8 | 20.9 | 0.00 | 0.38 | 0.08 | 68 | 1008.0 |
| 20260507133022 | 12 | 173 | 4.8 | 19.3 | 0.00 | 0.38 | 0.08 | 68 | 1008.0 |
| 20260507132512 | 11 | 313 | 1.6 | 19.3 | 0.00 | 0.38 | 0.08 | 67 | 1008.1 |
| 20260507132003 | 12 | 281 | 11.3 | 19.3 | 0.00 | 0.38 | 0.08 | 68 | 1008.1 |
| 20260507131516 | 11 | 309 | 6.4 | 14.5 | 0.00 | 0.38 | 0.08 | 69 | 1008.1 |
| 20260507131004 | 11 | 295 | 6.4 | 14.5 | 0.00 | 0.38 | 0.08 | 70 | 1008.1 |
| 20260507130508 | 11 | 327 | 3.2 | 20.9 | 0.00 | 0.38 | 0.08 | 69 | 1008.1 |
| 20260507130009 | 11 | 244 | 9.7 | 20.9 | 0.00 | 0.38 | 0.08 | 69 | 1008.1 |
| 20260507125505 | 11 | 268 | 3.2 | 12.9 | 0.00 | 0.38 | 0.08 | 71 | 1008.1 |
| 20260507125012 | 11 | 267 | 6.4 | 12.9 | 0.00 | 0.38 | 0.08 | 72 | 1008.1 |
| 20260507124515 | 11 | 258 | 4.8 | 14.5 | 0.00 | 0.38 | 0.08 | 72 | 1008.1 |
| 20260507124005 | 11 | 292 | 4.8 | 14.5 | 0.00 | 0.38 | 0.08 | 71 | 1008.3 |
| 20260507123506 | 10 | 278 | 3.2 | 16.1 | 0.00 | 0.38 | 0.08 | 73 | 1008.2 |
| 20260507123021 | 10 | 326 | 1.6 | 16.1 | 0.00 | 0.38 | 0.08 | 74 | 1008.2 |
| 20260507122511 | 10 | 302 | 6.4 | 16.1 | 0.00 | 0.38 | 0.08 | 74 | 1008.2 |
| 20260507122012 | 10 | 30 | 3.2 | 12.9 | 0.00 | 0.38 | 0.08 | 76 | 1008.2 |
| 20260507121522 | 10 | 42 | 4.8 | 12.9 | 0.00 | 0.38 | 0.08 | 76 | 1008.3 |
| 20260507121008 | 10 | 272 | 6.4 | 14.5 | 0.00 | 0.38 | 0.08 | 79 | 1008.3 |
| 20260507120507 | 10 | 323 | 1.6 | 14.5 | 0.00 | 0.38 | 0.08 | 80 | 1008.3 |
| 20260507120008 | 10 | 311 | 1.6 | 12.9 | 0.00 | 0.38 | 0.08 | 81 | 1008.3 |
| 20260507115504 | 9 | 316 | 4.8 | 12.9 | 0.00 | 0.38 | 0.08 | 83 | 1008.3 |
| 20260507115007 | 9 | 278 | 4.8 | 11.3 | 0.00 | 0.38 | 0.08 | 84 | 1008.1 |
| 20260507114520 | 9 | 24 | 3.2 | 6.4 | 0.00 | 0.38 | 0.08 | 85 | 1008.2 |
| 20260507114006 | 8 | 279 | 1.6 | 11.3 | 0.00 | 0.38 | 0.08 | 85 | 1008.3 |
| 20260507113507 | 9 | 298 | 3.2 | 14.5 | 0.00 | 0.38 | 0.08 | 86 | 1008.2 |
| 20260507113016 | 8 | 284 | 6.4 | 14.5 | 0.00 | 0.38 | 0.08 | 86 | 1008.3 |
| 20260507112507 | 8 | 250 | 4.8 | 9.7 | 0.00 | 0.38 | 0.08 | 87 | 1008.1 |
| 20260507112009 | 8 | 284 | 3.2 | 9.7 | 0.00 | 0.38 | 0.08 | 88 | 1008.0 |
| 20260507111523 | 8 | 301 | 4.8 | 9.7 | 0.00 | 0.38 | 0.08 | 88 | 1008.1 |
| 20260507111008 | 8 | 291 | 3.2 | 8.0 | 0.00 | 0.38 | 0.08 | 89 | 1008.1 |
| 20260507110508 | 8 | 296 | 3.2 | 3.2 | 0.00 | 0.38 | 0.08 | 89 | 1008.1 |
| 20260507110024 | 8 | 293 | 0.0 | 3.2 | 0.00 | 0.38 | 0.08 | 89 | 1008.0 |
| 20260507105507 | 8 | 293 | 0.0 | 3.2 | 0.00 | 0.38 | 0.08 | 89 | 1007.9 |
| 20260507105003 | 8 | 302 | 0.0 | 3.2 | 0.00 | 0.38 | 0.08 | 89 | 1007.7 |
| 20260507104511 | 8 | 302 | 0.0 | 3.2 | 0.00 | 0.38 | 0.08 | 88 | 1007.8 |
| 20260507104006 | 8 | 302 | 0.0 | 3.2 | 0.00 | 0.38 | 0.08 | 88 | 1007.8 |
| 20260507103507 | 8 | 302 | 0.0 | 3.2 | 0.00 | 0.38 | 0.08 | 88 | 1007.9 |
| 20260507103023 | 8 | 253 | 0.0 | 3.2 | 0.00 | 0.38 | 0.08 | 88 | 1008.0 |
| 20260507102506 | 8 | 253 | 1.6 | 3.2 | 0.00 | 0.38 | 0.08 | 88 | 1007.9 |
| 20260507102010 | 8 | 253 | 1.6 | 6.4 | 0.00 | 0.38 | 0.08 | 88 | 1007.6 |
| 20260507101522 | 8 | 271 | 3.2 | 6.4 | 0.00 | 0.38 | 0.08 | 88 | 1007.6 |
| 20260507101009 | 8 | 307 | 1.6 | 3.2 | 0.03 | 0.38 | 0.08 | 88 | 1007.4 |
| 20260507100507 | 8 | 307 | 1.6 | 3.2 | 0.03 | 0.38 | 0.08 | 88 | 1007.4 |
| 20260507100027 | 8 | 339 | 0.0 | 3.2 | 0.03 | 0.38 | 0.08 | 88 | 1007.5 |
| 20260507095507 | 8 | 290 | 0.0 | 3.2 | 0.03 | 0.38 | 0.08 | 88 | 1007.3 |
| 20260507095008 | 8 | 290 | 0.0 | 3.2 | 0.03 | 0.38 | 0.08 | 87 | 1007.3 |
| 20260507094528 | 8 | 290 | 0.0 | 3.2 | 0.03 | 0.38 | 0.08 | 87 | 1007.4 |
| 20260507094010 | 8 | 281 | 0.0 | 3.2 | 0.05 | 0.38 | 0.08 | 87 | 1007.4 |
| 20260507093503 | 8 | 278 | 0.0 | 4.8 | 0.05 | 0.38 | 0.08 | 87 | 1007.2 |
| 20260507093014 | 8 | 329 | 0.0 | 4.8 | 0.05 | 0.38 | 0.08 | 87 | 1007.2 |
| 20260507092507 | 8 | 320 | 1.6 | 8.0 | 0.05 | 0.38 | 0.08 | 87 | 1007.3 |
| 20260507092006 | 8 | 304 | 1.6 | 11.3 | 0.05 | 0.38 | 0.08 | 87 | 1007.2 |
| 20260507091519 | 8 | 289 | 0.0 | 11.3 | 0.05 | 0.38 | 0.08 | 87 | 1007.5 |
| 20260507091009 | 8 | 294 | 3.2 | 6.4 | 0.03 | 0.36 | 0.05 | 87 | 1007.6 |
| 20260507090507 | 8 | 322 | 0.0 | 8.0 | 0.03 | 0.36 | 0.05 | 86 | 1007.4 |
| 20260507090035 | 8 | 322 | 1.6 | 8.0 | 0.03 | 0.36 | 0.05 | 86 | 1007.5 |
| 20260507085508 | 8 | 303 | 0.0 | 4.8 | 0.03 | 0.36 | 0.05 | 86 | 1007.7 |
| 20260507084533 | 8 | 301 | 3.2 | 6.4 | 0.03 | 0.36 | 0.05 | 86 | 1007.9 |
| 20260507084008 | 8 | 287 | 1.6 | 12.9 | 0.00 | 0.33 | 0.03 | 87 | 1007.9 |
| 20260507083508 | 8 | 295 | 0.0 | 12.9 | 0.00 | 0.33 | 0.03 | 87 | 1007.8 |
| 20260507083026 | 8 | 276 | 1.6 | 8.0 | 0.00 | 0.33 | 0.03 | 87 | 1007.7 |
| 20260507082508 | 8 | 299 | 1.6 | 4.8 | 0.03 | 0.33 | 0.03 | 87 | 1007.6 |
| 20260507082007 | 8 | 228 | 0.0 | 3.2 | 0.03 | 0.33 | 0.03 | 87 | 1007.7 |
| 20260507081515 | 8 | 302 | 1.6 | 4.8 | 0.03 | 0.33 | 0.03 | 87 | 1007.8 |
| 20260507081006 | 8 | 248 | 1.6 | 4.8 | 0.03 | 0.33 | 0.03 | 87 | 1007.7 |
| 20260507080510 | 8 | 279 | 1.6 | 4.8 | 0.03 | 0.33 | 0.03 | 87 | 1007.6 |
| 20260507080019 | 8 | 360 | 0.0 | 3.2 | 0.03 | 0.33 | 0.03 | 86 | 1007.3 |
| 20260507075508 | 8 | 360 | 0.0 | 3.2 | 0.03 | 0.33 | 0.03 | 86 | 1007.3 |
| 20260507075010 | 8 | 360 | 0.0 | 4.8 | 0.03 | 0.33 | 0.03 | 85 | 1007.5 |
| 20260507074537 | 8 | 341 | 0.0 | 4.8 | 0.03 | 0.33 | 0.03 | 85 | 1007.7 |
| 20260507074008 | 8 | 247 | 0.0 | 3.2 | 0.03 | 0.33 | 0.03 | 84 | 1007.6 |
| 20260507073510 | 9 | 298 | 0.0 | 6.4 | 0.03 | 0.33 | 0.03 | 83 | 1007.7 |
| 20260507073025 | 9 | 339 | 1.6 | 17.7 | 0.03 | 0.33 | 0.03 | 81 | 1007.5 |
| 20260507072510 | 10 | 9 | 3.2 | 19.3 | 0.00 | 0.30 | 0.00 | 79 | 1007.4 |
| 20260507072012 | 10 | 345 | 1.6 | 19.3 | 0.00 | 0.30 | 0.00 | 78 | 1007.2 |
| 20260507071527 | 10 | 268 | 4.8 | 19.3 | 0.00 | 0.30 | 0.00 | 78 | 1007.5 |
| 20260507071008 | 10 | 279 | 1.6 | 9.7 | 0.00 | 0.30 | 0.00 | 77 | 1007.2 |
| 20260507070502 | 10 | 323 | 3.2 | 9.7 | 0.00 | 0.30 | 0.00 | 77 | 1006.9 |
| 20260507070010 | 10 | 45 | 3.2 | 12.9 | 0.00 | 0.30 | 0.00 | 77 | 1006.7 |
| 20260507065503 | 10 | 5 | 4.8 | 12.9 | 0.00 | 0.30 | 0.00 | 77 | 1006.9 |
| 20260507065003 | 10 | 314 | 4.8 | 8.0 | 0.00 | 0.30 | 0.00 | 78 | 1006.8 |
| 20260507064505 | 10 | 323 | 1.6 | 4.8 | 0.00 | 0.30 | 0.00 | 77 | 1006.7 |
| 20260507064003 | 10 | 340 | 1.6 | 6.4 | 0.00 | 0.30 | 0.00 | 77 | 1006.8 |
| 20260507063504 | 10 | 294 | 1.6 | 11.3 | 0.00 | 0.30 | 0.00 | 77 | 1006.8 |
| 20260507063007 | 10 | 308 | 3.2 | 16.1 | 0.00 | 0.30 | 0.00 | 77 | 1006.7 |
| 20260507062504 | 10 | 276 | 8.0 | 16.1 | 0.00 | 0.30 | 0.00 | 78 | 1006.8 |
| 20260507062004 | 11 | 188 | 1.6 | 6.4 | 0.00 | 0.30 | 0.00 | 80 | 1007.0 |
| 20260507061509 | 11 | 349 | 0.0 | 4.8 | 0.00 | 0.30 | 0.00 | 79 | 1007.1 |
| 20260507061007 | 11 | 278 | 1.6 | 9.7 | 0.00 | 0.30 | 0.00 | 80 | 1007.0 |
| 20260507060505 | 11 | 288 | 1.6 | 11.3 | 0.00 | 0.30 | 0.00 | 81 | 1007.0 |
| 20260507060003 | 11 | 360 | 4.8 | 11.3 | 0.00 | 0.30 | 0.00 | 82 | 1006.8 |
| 20260507055503 | 11 | 339 | 1.6 | 3.2 | 0.00 | 0.30 | 0.00 | 83 | 1006.8 |
| 20260507055003 | 11 | 283 | 1.6 | 8.0 | 0.00 | 0.30 | 0.00 | 82 | 1006.9 |
| 20260507054503 | 11 | 313 | 3.2 | 8.0 | 0.00 | 0.30 | 0.00 | 82 | 1007.1 |
| 20260507054003 | 11 | 324 | 3.2 | 8.0 | 0.00 | 0.30 | 0.00 | 82 | 1007.0 |
| 20260507053502 | 11 | 267 | 4.8 | 12.9 | 0.00 | 0.30 | 0.00 | 82 | 1007.1 |
| 20260507053006 | 11 | 290 | 6.4 | 12.9 | 0.00 | 0.30 | 0.00 | 82 | 1007.2 |
| 20260507052503 | 11 | 319 | 3.2 | 12.9 | 0.00 | 0.30 | 0.00 | 81 | 1007.2 |
| 20260507052007 | 11 | 14 | 6.4 | 12.9 | 0.00 | 0.30 | 0.00 | 81 | 1007.3 |
| 20260507051510 | 12 | 263 | 1.6 | 11.3 | 0.00 | 0.30 | 0.00 | 81 | 1007.3 |
| 20260507051003 | 12 | 293 | 3.2 | 11.3 | 0.00 | 0.30 | 0.00 | 81 | 1007.3 |
| 20260507050503 | 12 | 338 | 4.8 | 12.9 | 0.00 | 0.30 | 0.00 | 81 | 1007.1 |
| 20260507050013 | 12 | 295 | 3.2 | 16.1 | 0.00 | 0.30 | 0.00 | 82 | 1007.2 |
| 20260507045507 | 12 | 324 | 4.8 | 16.1 | 0.00 | 0.30 | 0.00 | 82 | 1007.0 |
| 20260507045006 | 12 | 306 | 6.4 | 19.3 | 0.00 | 0.30 | 0.00 | 83 | 1007.1 |
| 20260507044504 | 12 | 273 | 8.0 | 19.3 | 0.00 | 0.30 | 0.00 | 85 | 1007.0 |
| 20260507044002 | 12 | 292 | 9.7 | 17.7 | 0.00 | 0.30 | 0.00 | 86 | 1007.0 |
| 20260507043503 | 12 | 316 | 3.2 | 9.7 | 0.00 | 0.30 | 0.00 | 87 | 1007.1 |
| 20260507043005 | 13 | 299 | 0.0 | 8.0 | 0.00 | 0.30 | 0.00 | 87 | 1007.1 |
| 20260507042503 | 13 | 286 | 1.6 | 11.3 | 0.00 | 0.30 | 0.00 | 87 | 1006.9 |
| 20260507042003 | 13 | 290 | 3.2 | 12.9 | 0.00 | 0.30 | 0.00 | 87 | 1006.8 |
| 20260507041508 | 13 | 319 | 4.8 | 12.9 | 0.00 | 0.30 | 0.00 | 87 | 1006.8 |
| 20260507041003 | 13 | 308 | 1.6 | 14.5 | 0.00 | 0.30 | 0.00 | 87 | 1006.7 |
| 20260507040503 | 13 | 331 | 3.2 | 14.5 | 0.00 | 0.30 | 0.00 | 87 | 1006.8 |
| 20260507040013 | 13 | 269 | 6.4 | 11.3 | 0.00 | 0.30 | 0.00 | 87 | 1007.0 |
| 20260507035507 | 13 | 309 | 3.2 | 14.5 | 0.00 | 0.30 | 0.30 | 87 | 1007.0 |
| 20260507035006 | 13 | 288 | 3.2 | 14.5 | 0.00 | 0.30 | 0.30 | 87 | 1006.9 |
| 20260507034521 | 13 | 282 | 4.8 | 14.5 | 0.00 | 0.30 | 0.30 | 87 | 1007.0 |
| 20260507034007 | 13 | 302 | 3.2 | 12.9 | 0.00 | 0.30 | 0.30 | 88 | 1006.9 |
| 20260507033509 | 14 | 289 | 4.8 | 11.3 | 0.00 | 0.30 | 0.30 | 88 | 1006.8 |
| 20260507033003 | 14 | 340 | 3.2 | 8.0 | 0.00 | 0.30 | 0.30 | 89 | 1006.8 |
| 20260507032503 | 14 | 335 | 0.0 | 14.5 | 0.00 | 0.30 | 0.30 | 89 | 1006.6 |
| 20260507032002 | 14 | 306 | 1.6 | 14.5 | 0.00 | 0.30 | 0.30 | 90 | 1006.7 |
| 20260507031507 | 14 | 267 | 4.8 | 14.5 | 0.00 | 0.30 | 0.30 | 90 | 1006.3 |
| 20260507031003 | 14 | 252 | 3.2 | 12.9 | 0.00 | 0.30 | 0.30 | 90 | 1006.2 |
| 20260507030507 | 14 | 290 | 3.2 | 9.7 | 0.00 | 0.30 | 0.30 | 91 | 1006.4 |
| 20260507030017 | 14 | 300 | 3.2 | 9.7 | 0.00 | 0.30 | 0.30 | 91 | 1006.1 |
| 20260507025505 | 14 | 272 | 0.0 | 3.2 | 0.00 | 0.30 | 0.30 | 91 | 1006.1 |
| 20260507025005 | 14 | 272 | 0.0 | 3.2 | 0.00 | 0.30 | 0.30 | 91 | 1006.2 |
| 20260507024529 | 14 | 272 | 0.0 | 3.2 | 0.00 | 0.30 | 0.30 | 91 | 1006.2 |
| 20260507024008 | 14 | 272 | 0.0 | 3.2 | 0.00 | 0.30 | 0.30 | 91 | 1006.2 |
| 20260507023508 | 14 | 221 | 1.6 | 3.2 | 0.00 | 0.30 | 0.30 | 91 | 1006.0 |
| 20260507023018 | 14 | 338 | 0.0 | 6.4 | 0.00 | 0.30 | 0.30 | 91 | 1005.9 |
| 20260507022508 | 14 | 229 | 1.6 | 6.4 | 0.00 | 0.30 | 0.30 | 91 | 1006.0 |
| 20260507022010 | 14 | 138 | 1.6 | 6.4 | 0.00 | 0.30 | 0.30 | 91 | 1006.0 |
| 20260507021504 | 14 | 279 | 0.0 | 6.4 | 0.00 | 0.30 | 0.30 | 91 | 1006.1 |
| 20260507021007 | 14 | 321 | 1.6 | 6.4 | 0.00 | 0.30 | 0.30 | 91 | 1006.1 |
| 20260507020503 | 14 | 24 | 1.6 | 4.8 | 0.00 | 0.30 | 0.30 | 91 | 1006.0 |
| 20260507020008 | 14 | 323 | 0.0 | 6.4 | 0.00 | 0.30 | 0.30 | 91 | 1005.9 |
| 20260507015506 | 14 | 288 | 1.6 | 12.9 | 0.00 | 0.30 | 0.30 | 91 | 1005.8 |
| 20260507015003 | 14 | 223 | 3.2 | 12.9 | 0.00 | 0.30 | 0.30 | 91 | 1006.0 |
| 20260507014526 | 14 | 230 | 0.0 | 11.3 | 0.00 | 0.30 | 0.30 | 91 | 1006.0 |
| 20260507014007 | 14 | 292 | 3.2 | 11.3 | 0.00 | 0.30 | 0.30 | 91 | 1006.0 |
| 20260507013506 | 14 | 21 | 0.0 | 4.8 | 0.00 | 0.30 | 0.30 | 91 | 1006.0 |
| 20260507013016 | 14 | 48 | 0.0 | 6.4 | 0.00 | 0.30 | 0.30 | 91 | 1005.9 |
| 20260507012511 | 14 | 326 | 0.0 | 9.7 | 0.00 | 0.30 | 0.30 | 91 | 1005.8 |
| 20260507012006 | 14 | 309 | 0.0 | 9.7 | 0.00 | 0.30 | 0.30 | 91 | 1005.9 |
| 20260507011534 | 14 | 224 | 1.6 | 12.9 | 0.00 | 0.30 | 0.30 | 91 | 1005.9 |
| 20260507011011 | 14 | 275 | 0.0 | 12.9 | 0.00 | 0.30 | 0.30 | 91 | 1006.0 |
| 20260507010509 | 14 | 162 | 3.2 | 12.9 | 0.00 | 0.30 | 0.30 | 91 | 1006.0 |
| 20260507010008 | 14 | 151 | 1.6 | 6.4 | 0.00 | 0.30 | 0.30 | 91 | 1006.2 |
| 20260507005504 | 14 | 159 | 0.0 | 4.8 | 0.00 | 0.30 | 0.30 | 91 | 1006.2 |
| 20260507005003 | 14 | 163 | 0.0 | 4.8 | 0.00 | 0.30 | 0.30 | 91 | 1006.1 |
| 20260507004509 | 14 | 229 | 0.0 | 4.8 | 0.03 | 0.30 | 0.30 | 91 | 1006.2 |
| 20260507004007 | 14 | 26 | 1.6 | 4.8 | 0.03 | 0.30 | 0.30 | 91 | 1006.1 |
| 20260507003508 | 14 | 264 | 1.6 | 4.8 | 0.03 | 0.30 | 0.30 | 91 | 1006.1 |
| 20260507003018 | 14 | 29 | 1.6 | 4.8 | 0.03 | 0.30 | 0.30 | 91 | 1006.0 |
| 20260507002507 | 14 | 55 | 0.0 | 4.8 | 0.03 | 0.30 | 0.30 | 90 | 1006.0 |
| 20260507002009 | 14 | 80 | 0.0 | 4.8 | 0.03 | 0.30 | 0.30 | 90 | 1006.0 |
| 20260507001519 | 14 | 296 | 1.6 | 6.4 | 0.03 | 0.30 | 0.30 | 90 | 1006.0 |
| 20260507001008 | 14 | 119 | 0.0 | 6.4 | 0.03 | 0.30 | 0.30 | 90 | 1006.0 |
| 20260507000507 | 14 | 112 | 1.6 | 3.2 | 0.03 | 0.30 | 0.30 | 90 | 1005.9 |
| 20260507000023 | 14 | 169 | 1.6 | 6.4 | 0.03 | 0.30 | 0.30 | 90 | 1005.9 |
| 20260506235507 | 14 | 134 | 1.6 | 6.4 | 0.03 | 0.30 | 0.30 | 90 | 1005.8 |
| 20260506235010 | 14 | 190 | 1.6 | 6.4 | 0.05 | 0.30 | 0.30 | 90 | 1005.8 |
| 20260506234507 | 14 | 292 | 0.0 | 9.7 | 0.05 | 0.28 | 0.28 | 90 | 1005.8 |
| 20260506234003 | 14 | 145 | 1.6 | 11.3 | 0.08 | 0.28 | 0.28 | 90 | 1005.7 |
| 20260506233502 | 14 | 171 | 0.0 | 11.3 | 0.08 | 0.28 | 0.28 | 90 | 1005.8 |
| 20260506233011 | 14 | 88 | 1.6 | 8.0 | 0.10 | 0.28 | 0.28 | 90 | 1005.7 |
| 20260506232510 | 14 | 155 | 1.6 | 8.0 | 0.10 | 0.28 | 0.28 | 90 | 1005.7 |
| 20260506232008 | 14 | 234 | 0.0 | 3.2 | 0.10 | 0.28 | 0.28 | 90 | 1005.7 |
| 20260506231517 | 14 | 169 | 0.0 | 6.4 | 0.10 | 0.28 | 0.28 | 90 | 1005.6 |
| 20260506231009 | 14 | 193 | 1.6 | 6.4 | 0.10 | 0.28 | 0.28 | 90 | 1005.6 |
| 20260506230507 | 14 | 89 | 0.0 | 4.8 | 0.10 | 0.28 | 0.28 | 90 | 1005.6 |
| 20260506230019 | 14 | 144 | 1.6 | 3.2 | 0.10 | 0.28 | 0.28 | 90 | 1005.6 |
| 20260506225507 | 14 | 127 | 0.0 | 6.4 | 0.10 | 0.28 | 0.28 | 90 | 1005.7 |
| 20260506225008 | 14 | 184 | 1.6 | 6.4 | 0.08 | 0.25 | 0.25 | 90 | 1005.7 |
| 20260506224525 | 14 | 139 | 1.6 | 6.4 | 0.05 | 0.23 | 0.23 | 89 | 1005.8 |
| 20260506224007 | 14 | 191 | 1.6 | 6.4 | 0.05 | 0.20 | 0.20 | 89 | 1005.7 |
| 20260506223504 | 14 | 301 | 0.0 | 4.8 | 0.05 | 0.20 | 0.20 | 89 | 1005.8 |
| 20260506223006 | 14 | 225 | 0.0 | 4.8 | 0.03 | 0.18 | 0.18 | 89 | 1005.8 |
| 20260506222504 | 14 | 99 | 0.0 | 6.4 | 0.03 | 0.18 | 0.18 | 89 | 1005.9 |
| 20260506222005 | 14 | 278 | 3.2 | 12.9 | 0.03 | 0.18 | 0.18 | 89 | 1005.9 |
| 20260506221514 | 14 | 107 | 1.6 | 12.9 | 0.03 | 0.18 | 0.18 | 89 | 1005.9 |
| 20260506221007 | 14 | 202 | 0.0 | 6.4 | 0.03 | 0.18 | 0.18 | 89 | 1006.0 |
| 20260506220503 | 15 | 360 | 0.0 | 4.8 | 0.03 | 0.18 | 0.18 | 89 | 1006.1 |
| 20260506220002 | 15 | 321 | 1.6 | 4.8 | 0.03 | 0.18 | 0.18 | 89 | 1006.2 |
| 20260506215502 | 15 | 320 | 1.6 | 3.2 | 0.03 | 0.18 | 0.18 | 89 | 1006.2 |
| 20260506215002 | 15 | 140 | 0.0 | 8.0 | 0.03 | 0.18 | 0.18 | 88 | 1006.2 |
| 20260506214503 | 15 | 173 | 3.2 | 8.0 | 0.03 | 0.18 | 0.18 | 88 | 1006.2 |
| 20260506214002 | 15 | 159 | 1.6 | 4.8 | 0.00 | 0.15 | 0.15 | 88 | 1006.2 |
| 20260506213503 | 15 | 155 | 1.6 | 6.4 | 0.00 | 0.15 | 0.15 | 88 | 1006.3 |
| 20260506213003 | 15 | 53 | 1.6 | 8.0 | 0.00 | 0.15 | 0.15 | 88 | 1006.4 |
| 20260506211003 | 15 | 273 | 3.2 | 9.7 | 0.03 | 0.15 | 0.15 | 88 | 1006.5 |
| 20260506210505 | 15 | 217 | 1.6 | 6.4 | 0.03 | 0.15 | 0.15 | 88 | 1006.6 |
| 20260506210002 | 15 | 223 | 0.0 | 6.4 | 0.03 | 0.15 | 0.15 | 87 | 1006.6 |
| 20260506205503 | 15 | 301 | 1.6 | 6.4 | 0.03 | 0.15 | 0.15 | 87 | 1006.6 |
| 20260506205003 | 15 | 190 | 1.6 | 11.3 | 0.03 | 0.15 | 0.15 | 87 | 1006.8 |
| 20260506204504 | 15 | 154 | 1.6 | 11.3 | 0.03 | 0.15 | 0.15 | 87 | 1006.9 |
| 20260506204003 | 15 | 200 | 3.2 | 8.0 | 0.03 | 0.15 | 0.15 | 87 | 1006.9 |
| 20260506203502 | 15 | 250 | 1.6 | 11.3 | 0.03 | 0.15 | 0.15 | 87 | 1006.9 |
| 20260506203010 | 15 | 193 | 3.2 | 11.3 | 0.03 | 0.15 | 0.15 | 87 | 1006.9 |
| 20260506202503 | 15 | 36 | 1.6 | 14.5 | 0.03 | 0.15 | 0.15 | 87 | 1006.8 |
| 20260506202003 | 15 | 290 | 3.2 | 14.5 | 0.05 | 0.15 | 0.15 | 87 | 1006.8 |
| 20260506200008 | 15 | 236 | 3.2 | 16.1 | 0.08 | 0.13 | 0.13 | 86 | 1007.0 |
| 20260506195502 | 15 | 289 | 3.2 | 16.1 | 0.08 | 0.13 | 0.13 | 87 | 1006.9 |
| 20260506195002 | 15 | 183 | 3.2 | 9.7 | 0.08 | 0.13 | 0.13 | 86 | 1007.0 |
| 20260506194503 | 15 | 286 | 4.8 | 8.0 | 0.10 | 0.13 | 0.13 | 86 | 1007.0 |
| 20260506194004 | 15 | 172 | 3.2 | 9.7 | 0.10 | 0.13 | 0.13 | 86 | 1007.0 |
| 20260506193502 | 15 | 236 | 1.6 | 16.1 | 0.10 | 0.13 | 0.13 | 85 | 1007.0 |
| 20260506193004 | 15 | 175 | 3.2 | 16.1 | 0.13 | 0.13 | 0.13 | 85 | 1007.0 |
| 20260506192502 | 15 | 180 | 3.2 | 12.9 | 0.13 | 0.13 | 0.13 | 85 | 1007.0 |
| 20260506192002 | 15 | 224 | 1.6 | 12.9 | 0.10 | 0.10 | 0.10 | 85 | 1007.1 |
| 20260506191503 | 16 | 244 | 3.2 | 12.9 | 0.10 | 0.10 | 0.10 | 84 | 1007.1 |
| 20260506191004 | 16 | 317 | 4.8 | 12.9 | 0.08 | 0.08 | 0.08 | 84 | 1007.0 |
| 20260506190505 | 16 | 130 | 1.6 | 11.3 | 0.08 | 0.08 | 0.08 | 83 | 1006.9 |
| 20260506190004 | 16 | 205 | 0.0 | 4.8 | 0.05 | 0.05 | 0.05 | 83 | 1007.0 |
| 20260506185503 | 16 | 150 | 1.6 | 4.8 | 0.05 | 0.05 | 0.05 | 82 | 1007.0 |
| 20260506185004 | 16 | 224 | 1.6 | 4.8 | 0.05 | 0.05 | 0.05 | 81 | 1007.0 |
| 20260506184515 | 17 | 261 | 1.6 | 6.4 | 0.03 | 0.03 | 0.03 | 80 | 1007.1 |
| 20260506184002 | 17 | 291 | 1.6 | 19.3 | 0.03 | 0.03 | 0.03 | 78 | 1007.2 |
| 20260506183506 | 17 | 198 | 6.4 | 19.3 | 0.03 | 0.03 | 0.03 | 76 | 1007.3 |
| 20260506183004 | 17 | 248 | 3.2 | 12.9 | 0.00 | 0.00 | 0.00 | 76 | 1007.3 |
| 20260506182503 | 18 | 75 | 3.2 | 12.9 | 0.00 | 0.00 | 0.00 | 74 | 1007.5 |
| 20260506182003 | 18 | 295 | 1.6 | 8.0 | 0.00 | 0.00 | 0.00 | 74 | 1007.6 |
| 20260506181503 | 18 | 219 | 1.6 | 8.0 | 0.00 | 0.00 | 0.00 | 73 | 1007.5 |
| 20260506181004 | 19 | 278 | 1.6 | 12.9 | 0.00 | 0.00 | 0.00 | 71 | 1007.4 |
| 20260506180503 | 19 | 270 | 3.2 | 12.9 | 0.00 | 0.00 | 0.00 | 69 | 1007.4 |
| 20260506180006 | 19 | 326 | 3.2 | 17.7 | 0.00 | 0.00 | 0.00 | 67 | 1007.5 |
| 20260506175504 | 20 | 265 | 6.4 | 17.7 | 0.00 | 0.00 | 0.00 | 65 | 1007.5 |
| 20260506175002 | 20 | 219 | 6.4 | 16.1 | 0.00 | 0.00 | 0.00 | 63 | 1007.5 |
| 20260506174505 | 20 | 265 | 4.8 | 17.7 | 0.00 | 0.00 | 0.00 | 63 | 1007.5 |
| 20260506174002 | 21 | 211 | 6.4 | 17.7 | 0.00 | 0.00 | 0.00 | 59 | 1007.4 |
| 20260506173504 | 21 | 236 | 6.4 | 17.7 | 0.00 | 0.00 | 0.00 | 58 | 1007.3 |
| 20260506173004 | 21 | 238 | 4.8 | 12.9 | 0.00 | 0.00 | 0.00 | 57 | 1007.4 |
| 20260506172503 | 22 | 61 | 3.2 | 22.5 | 0.00 | 0.00 | 0.00 | 56 | 1007.3 |
| 20260506172003 | 22 | 183 | 1.6 | 22.5 | 0.00 | 0.00 | 0.00 | 55 | 1007.3 |
| 20260506171503 | 22 | 260 | 4.8 | 12.9 | 0.00 | 0.00 | 0.00 | 55 | 1007.3 |
| 20260506171003 | 22 | 258 | 1.6 | 16.1 | 0.00 | 0.00 | 0.00 | 55 | 1007.3 |
| 20260506170502 | 22 | 338 | 4.8 | 19.3 | 0.00 | 0.00 | 0.00 | 55 | 1007.4 |
| 20260506170009 | 22 | 109 | 3.2 | 19.3 | 0.00 | 0.00 | 0.00 | 56 | 1007.4 |
| 20260506165503 | 22 | 143 | 4.8 | 16.1 | 0.00 | 0.00 | 0.00 | 54 | 1007.3 |
| 20260506165005 | 22 | 190 | 8.0 | 17.7 | 0.00 | 0.00 | 0.00 | 54 | 1007.5 |
| 20260506164504 | 22 | 351 | 3.2 | 22.5 | 0.00 | 0.00 | 0.00 | 56 | 1007.5 |
| 20260506164002 | 22 | 360 | 4.8 | 22.5 | 0.00 | 0.00 | 0.00 | 56 | 1007.6 |
| 20260506162507 | 21 | 119 | 6.4 | 20.9 | 0.00 | 0.00 | 0.00 | 57 | 1007.9 |
| 20260506162006 | 21 | 134 | 4.8 | 19.3 | 0.00 | 0.00 | 0.00 | 57 | 1007.9 |
| 20260506161507 | 21 | 162 | 1.6 | 25.7 | 0.00 | 0.00 | 0.00 | 58 | 1008.1 |
| 20260506161007 | 21 | 104 | 3.2 | 25.7 | 0.00 | 0.00 | 0.00 | 58 | 1008.2 |
| 20260506160503 | 21 | 181 | 4.8 | 20.9 | 0.00 | 0.00 | 0.00 | 58 | 1008.1 |
| 20260506160007 | 21 | 51 | 3.2 | 12.9 | 0.00 | 0.00 | 0.00 | 60 | 1008.3 |
| 20260506155504 | 21 | 98 | 4.8 | 14.5 | 0.00 | 0.00 | 0.00 | 59 | 1008.2 |
| 20260506155003 | 21 | 302 | 4.8 | 14.5 | 0.00 | 0.00 | 0.00 | 59 | 1008.3 |
| 20260506154506 | 21 | 178 | 1.6 | 14.5 | 0.00 | 0.00 | 0.00 | 62 | 1008.5 |
| 20260506154003 | 20 | 153 | 3.2 | 14.5 | 0.00 | 0.00 | 0.00 | 61 | 1008.5 |
| 20260506153503 | 20 | 205 | 1.6 | 17.7 | 0.00 | 0.00 | 0.00 | 61 | 1008.5 |
| 20260506153009 | 20 | 24 | 3.2 | 17.7 | 0.00 | 0.00 | 0.00 | 61 | 1008.5 |
| 20260506152503 | 21 | 161 | 4.8 | 11.3 | 0.00 | 0.00 | 0.00 | 61 | 1008.7 |
| 20260506152004 | 21 | 157 | 4.8 | 12.9 | 0.00 | 0.00 | 0.00 | 60 | 1008.7 |
| 20260506151003 | 21 | 123 | 4.8 | 20.9 | 0.00 | 0.00 | 0.00 | 60 | 1009.0 |
| 20260506150505 | 21 | 296 | 4.8 | 16.1 | 0.00 | 0.00 | 0.00 | 61 | 1009.0 |
| 20260506150008 | 20 | 154 | 3.2 | 16.1 | 0.00 | 0.00 | 0.00 | 62 | 1009.1 |
| 20260506145504 | 21 | 171 | 6.4 | 16.1 | 0.00 | 0.00 | 0.00 | 63 | 1009.0 |